Showing default

COSMOS 2165, 21779

Orbit data source: Space-Track

COSMOS 2165, 21779 is a payload satellite owned by UNKS RF (CIS) in LEO that was launched on Tue, 12 Nov 1991 UTC via a TSIKLON-3 launch vehicle from the Plesetsk Missile And Space Complex (PKMTR). Payload-class satellites include a variety of spacecraft equipped with specific instruments for various scientific and technological missions. These include communications satellites like Starlink; space stations such as the ISS; scientific satellites like the Hubble; Earth observation satellites from companies like Planet Labs, Umbra, and HawkEye 360; GPS; miniature CubeSats for education and research; and military/defense satellites.

Loading next visibility...
Identifier
21779, 1991-077A
Orbit
LEO
Country
Flag of CISCIS
Related business
Manufacturer
NPO PM
Mission
Defense Communications
Bus & Motor
STRELA-3, Unknown motor
Mass
225 kg wet, 225 kg dry
Launch date (UTC)
1991-11-12 (34 years ago)
Launch vehicle
TSIKLON-3
Launch site
Plesetsk Missile And Space Complex (PKMTR)
Object type
Payload
Rocket body
Debris
Shape & HBR
Cyl, 0.8 m
Radar Cross Section
1.257 m², Large (>1 m²)

Expand to show TLE details & history
Last TLE update: 18 hours ago

TLE from 18 hours ago
0 COSMOS 2165
1 21779U 91077A   26125.79249882  .00000032  00000-0  11579-3 0  9996
2 21779  82.6049 259.2785 0011281 147.3484 324.0521 12.64920783591632
Epoch: 2026-05-05T19:01Z
TLE epoch observation values (Epoch: 2026-05-05T19:01:11.898Z)
Latitude
67.56218°
Longitude
-87.90849°
Altitude
1,407.261 km
Speed
7.166 km/s
True Right ascension
04h 04m 12s
True Declination
67° 27' 03"
Sunlit
Object was in daylight at epoch
Visualization orbit readout
Latitude
Unknown
Longitude
Unknown
Altitude
Unknown
Speed
Unknown
Apparent Right ascension
Unknown
Apparent Declination
Unknown
Sunlit
N/A
Visualization observer readout
Local Sidereal Time
21:24:22
Azimuth
Unknown
Elevation
Unknown
Doppler factor
Unknown
Orbital elements
Apogee altitude
1,408.79 km
Perigee altitude
1,391.241 km
Semi-major axis
7,778.152 km
Eccentricity
0.00113
Inclination
82.6049°
RAAN
259.2785°
Arg. of periapsis
147.3484°
True anomaly
323.97612°
Mean anomaly
324.0521°
Eccentric anomaly
324.01412°
Mean motion
3.16394 °/min
Orbital period
113.78 mins
BSTAR
0.00011579
Loading maneuver chart data...
Computing Atmospheric mass density...
Loading historical data...
Loading historical data...
Loading historical data...
Loading historical data...
Loading historical data...
Loading historical data...
Loading historical data...

Documentation

Showing up to 5 results
|